RH
98 98 97 95 83 71 57 38 25 14 11 10 10 9 12 20 9 8 8 7 7 8 10 11 12 17 17 18 19 19 20 21 22 23 21 18 14 13 11 10 9 9 9
98 97 92 78 68 55 38 21 16 13 12 12 11 16 29 19 8 7 11 10 11 12 11 12 12 13 16 19 21 22 24 26 27 26 21 16 12 10 9 9 10 10 10
95 94 76 66 58 37 21 18 15 13 13 13 13 29 22 11 11 11 6 10 12 15 16 18 20 20 20 21 23 25 27 28 28 27 26 22 15 11 14 14 13 12 11
73 52 29 26 25 20 20 17 15 14 13 14 32 36 19 11 11 12 18 10 12 18 25 32 30 27 27 26 26 27 27 29 29 26 21 17 18 19 18 18 17 17 17
50 33 21 18 20 21 18 17 15 14 12 34 39 32 18 19 21 31 31 21 27 16 17 38 48 33 32 33 35 31 27 29 27 23 19 21 27 29 28 26 24 23 23
61 31 18 19 21 19 18 16 15 14 32 47 39 44 40 40 41 50 45 34 37 45 36 35 35 34 37 38 44 39 34 41 38 34 32 32 31 29 27 24 22 20 18
56 25 20 19 19 18 17 15 18 30 40 47 39 50 53 53 60 55 56 42 37 52 78 77 70 40 40 39 36 32 44 49 42 39 37 33 30 27 23 20 18 17 16
42 19 20 21 20 19 19 30 35 37 44 60 56 64 58 50 41 42 37 29 58 73 74 51 64 52 58 48 39 33 37 45 49 44 38 32 27 25 22 20 18 16 15
42 25 22 23 18 18 22 28 46 56 73 78 76 74 69 75 69 36 36 32 45 83 84 65 44 53 57 58 58 51 55 57 51 40 37 34 29 26 23 21 18 15 12
52 54 56 54 35 26 30 44 71 85 92 79 89 89 93 96 89 85 71 55 60 80 77 35 56 70 68 58 52 50 64 62 46 41 40 34 30 29 24 18 12 8 4
24 43 31 67 72 68 52 54 97 99 98 94 98 94 100 100 100 100 98 96 84 82 46 35 57 64 62 58 63 68 62 55 50 47 40 38 31 21 14 7 5 8 12
89 96 96 91 99 99 98 98 99 94 99 87 85 97 100 99 97 92 79 90 92 54 50 59 65 63 67 75 79 67 62 64 59 50 41 28 14 8 9 15 19 25 28
85 83 90 97 98 97 99 99 92 100 100 75 97 100 99 100 99 95 98 89 39 62 86 100 98 90 84 78 73 63 71 64 58 45 24 12 9 18 31 32 36 36 24
48 54 90 90 94 96 94 67 56 65 71 80 100 96 86 97 100 100 54 34 55 80 96 100 100 96 91 83 72 73 65 63 51 28 14 11 24 41 45 47 45 32 20
54 48 74 83 60 39 43 31 36 37 27 50 99 100 100 92 41 29 44 73 99 87 95 100 96 100 100 90 84 71 64 51 27 15 10 19 47 63 57 56 46 29 18
56 72 76 70 57 41 26 12 12 14 18 34 40 44 28 35 38 51 87 100 100 89 89 99 100 99 93 85 75 66 53 30 16 15 21 34 69 63 62 60 38 22 20
64 65 53 53 18 11 10 14 19 21 27 35 48 46 53 44 47 54 97 99 100 100 98 100 87 85 82 77 66 52 30 16 14 22 35 69 76 63 72 47 28 20 22
60 51 38 15 9 10 18 23 26 32 31 65 36 37 42 54 66 81 100 100 100 100 90 79 82 81 71 63 49 30 18 18 22 38 67 74 84 80 62 36 24 23 32
50 25 12 9 12 20 24 30 35 37 32 34 36 46 54 63 83 98 94 92 88 84 88 78 68 65 59 44 29 18 15 22 29 43 76 88 81 72 50 30 24 29 40
28 15 10 13 20 25 30 35 43 41 37 39 46 54 69 80 78 82 85 87 91 83 72 71 67 58 40 26 22 20 17 37 44 50 60 83 87 66 44 28 25 32 42
12 12 19 20 22 27 31 41 47 45 44 48 52 61 64 69 81 86 95 86 70 67 66 64 55 38 21 22 33 44 47 57 59 58 72 65 70 58 38 30 30 40 43
19 22 18 20 18 24 38 42 46 50 52 53 56 59 66 69 78 81 67 61 58 61 61 53 33 16 15 27 45 80 76 81 83 75 76 60 59 48 38 31 37 47 46
13 16 16 17 23 34 41 45 49 56 54 52 52 53 58 66 68 62 56 57 57 59 52 37 30 22 13 24 36 49 62 80 85 82 70 53 54 43 38 36 56 56 48
15 17 20 24 28 34 41 49 59 54 50 50 54 58 59 59 58 55 56 60 60 54 42 34 20 12 11 18 26 33 40 53 58 56 60 46 50 43 39 46 64 64 53
21 26 28 30 32 37 48 58 52 52 54 55 58 62 61 56 57 64 67 64 56 48 39 22 10 12 15 17 22 27 34 46 51 49 50 54 47 43 40 59 72 64 52
30 34 36 37 42 48 56 54 53 55 54 55 59 62 63 68 72 72 68 58 49 43 29 8 9 14 15 16 18 29 67 77 58 48 62 56 48 50 48 86 78 65 53
Wind_Speed
22 22 26 18 15 13 11 10 11 10 10 12 15 18 22 27 27 29 30 31 33 33 35 36 37 38 39 40 41 42 43 45 45 44 42 40 37 35 35 35 36 36 36
19 22 17 14 13 11 11 12 11 11 12 15 18 21 24 28 30 28 32 33 33 34 35 37 38 39 41 42 43 43 44 44 44 43 42 41 41 40 40 40 41 43 44
21 13 11 11 10 11 12 11 12 14 17 18 20 22 27 29 30 33 32 34 34 35 37 39 41 42 43 44 45 45 43 43 45 46 46 45 45 45 47 48 48 49 50
12 10 10 10 11 12 11 12 14 18 20 22 23 25 27 29 31 33 39 39 39 39 41 42 46 46 46 45 44 44 45 45 45 45 46 47 49 51 52 54 55 56 57
8 7 10 12 12 12 13 15 18 22 24 25 27 24 28 33 36 38 43 44 45 46 47 48 55 54 49 46 45 46 47 46 47 49 51 53 55 57 58 60 61 63 64
7 10 13 14 12 14 16 20 23 26 28 33 33 27 30 33 40 43 46 47 47 48 51 56 58 58 53 47 46 47 46 47 50 53 56 57 59 61 64 66 67 69 71
10 10 12 13 16 19 21 25 28 32 35 36 37 35 37 37 40 46 49 53 49 50 51 64 67 63 57 52 51 49 48 54 59 61 62 62 64 67 69 71 73 75 77
13 12 15 19 20 21 24 28 31 35 38 38 40 37 41 42 46 49 51 51 48 52 58 67 69 62 56 55 53 51 53 57 64 66 67 69 70 73 75 78 81 83 86
15 18 21 21 23 27 29 31 34 35 34 36 37 38 42 47 49 51 58 60 57 53 64 72 73 64 56 56 58 60 63 66 69 70 71 75 78 81 83 84 86 88 91
17 20 25 26 30 32 37 35 36 36 36 41 36 41 44 49 52 58 61 62 60 58 72 73 68 61 58 63 63 64 65 70 72 75 79 82 85 86 86 87 89 90 91
21 25 26 30 38 40 39 42 42 32 38 42 47 52 47 51 51 58 57 59 62 67 83 77 68 63 62 66 68 69 71 73 77 82 84 86 86 86 87 86 84 79 72
24 27 25 32 34 39 38 44 42 35 41 44 45 50 57 53 55 66 64 64 73 76 78 74 71 70 70 71 72 71 74 78 82 84 85 85 85 84 79 75 69 64 63
24 28 32 35 40 39 35 33 33 38 40 43 43 55 50 52 62 64 67 76 77 75 72 69 69 71 74 76 76 76 77 82 84 85 82 83 78 73 68 63 61 61 64
26 31 35 35 31 29 30 34 38 41 44 47 43 46 52 59 62 71 78 75 73 73 69 67 72 75 78 81 79 81 82 84 85 83 81 75 66 62 60 57 58 62 62
29 33 32 35 36 36 37 40 41 43 44 47 49 50 56 66 72 71 71 72 68 70 66 67 76 78 80 83 83 83 84 85 82 82 75 66 59 58 56 56 57 61 60
34 34 37 38 38 39 41 43 44 46 49 50 51 56 61 65 68 70 69 70 71 72 71 78 77 78 81 83 86 87 86 83 80 72 63 58 54 55 54 55 57 58 55
35 38 39 39 40 42 43 45 48 50 51 55 56 58 62 66 68 68 70 69 69 78 82 80 81 83 84 86 87 87 84 81 73 63 58 53 52 53 52 54 57 57 51
39 42 41 43 43 44 46 48 50 53 56 54 58 60 64 65 67 66 70 71 82 79 80 79 81 83 85 87 86 83 79 72 63 55 53 52 52 51 51 53 55 55 49
43 44 44 44 46 48 50 52 54 56 56 56 61 62 64 65 65 66 68 72 74 76 80 83 82 85 86 86 85 82 74 64 57 52 51 51 51 49 51 52 53 50 46
45 45 45 46 48 51 52 55 56 57 59 61 62 63 62 64 66 68 70 73 76 79 82 85 86 86 85 81 79 74 68 56 52 50 52 52 51 51 52 52 51 47 42
44 44 46 48 51 53 55 58 60 62 62 63 63 63 64 65 67 69 72 75 78 81 84 86 86 85 83 75 69 65 61 54 52 52 53 52 51 52 52 52 48 45 42
43 46 49 51 53 56 58 60 61 62 62 62 62 63 64 66 69 71 74 76 79 83 86 86 84 84 79 70 64 62 62 57 55 53 55 53 52 51 51 50 46 44 40
45 48 51 53 55 56 58 61 62 63 63 62 61 63 65 68 71 74 76 79 81 86 86 84 85 82 75 69 65 64 62 60 56 54 55 53 52 50 49 46 41 43 40
48 51 54 55 56 59 61 62 61 61 60 60 62 65 67 70 75 78 80 82 85 86 85 87 86 82 74 68 67 64 61 59 55 53 54 54 50 48 45 41 38 40 39
52 54 55 56 58 60 62 60 61 60 61 64 66 67 71 75 79 81 84 87 89 88 87 87 83 77 71 65 64 62 57 56 54 51 50 51 47 45 41 36 35 38 37
54 56 57 59 61 63 61 62 61 61 64 66 69 72 75 78 81 85 88 91 92 91 90 86 78 73 69 65 62 58 52 49 49 48 43 48 43 41 36 33 33 36 35
Wind_Direction
255 229 221 159 168 188 200 214 224 238 264 287 302 315 317 324 326 324 321 323 328 326 323 322 321 316 312 307 303 301 300 298 295 293 288 285 282 279 281 282 282 281 279
200 180 155 175 185 191 200 213 234 260 279 297 315 317 322 321 317 318 323 327 327 326 324 322 320 317 311 305 301 300 299 296 293 290 288 285 283 283 284 283 282 281 281
159 159 181 198 202 203 205 230 258 276 288 305 313 316 315 321 322 321 320 321 322 323 323 321 317 313 308 304 301 299 298 296 294 292 290 287 284 284 286 286 284 284 282
168 183 201 193 197 209 227 250 271 283 298 309 312 308 311 315 320 323 322 316 318 317 321 323 321 317 313 307 302 299 297 295 294 289 286 285 286 285 284 283 281 279 279
188 204 201 199 213 233 252 269 281 291 298 304 305 300 307 316 321 321 323 317 312 314 315 319 323 321 316 311 304 301 297 295 292 289 288 288 288 288 287 285 282 280 278
223 214 208 217 233 255 269 281 287 291 295 299 298 294 297 304 310 316 316 313 313 311 318 320 320 320 316 310 302 299 296 298 298 298 296 294 293 290 289 287 285 283 281
252 229 230 244 252 264 278 286 290 291 296 297 295 294 295 291 297 300 308 313 305 307 311 318 320 318 314 308 305 301 300 302 301 299 298 298 296 295 294 293 291 289 286
260 237 235 248 256 271 282 286 292 294 296 296 296 300 300 298 298 301 308 311 302 303 311 315 317 315 313 309 306 300 302 304 305 304 304 303 301 300 298 295 293 290 287
252 248 251 258 269 273 277 284 289 292 298 303 299 301 300 297 296 303 313 316 310 301 310 314 314 312 309 308 304 301 303 305 305 305 307 306 304 303 301 299 296 294 291
259 261 268 271 274 277 283 283 286 288 306 306 296 294 300 298 295 305 306 307 308 297 309 312 313 309 305 307 305 306 306 308 307 308 309 308 306 304 303 301 298 296 294
276 281 282 276 274 277 279 281 279 294 300 309 297 302 295 296 287 297 303 302 296 294 308 308 309 307 306 308 309 310 308 308 308 310 310 308 307 305 303 303 301 299 294
287 287 289 295 288 287 285 290 290 297 297 302 298 301 298 295 291 296 296 296 304 310 309 309 310 308 310 310 309 310 309 310 310 310 308 307 307 307 305 303 300 298 297
295 298 305 312 303 291 288 298 298 290 296 299 304 292 291 284 294 297 293 301 308 309 309 310 309 309 308 309 308 309 310 310 309 309 308 309 309 304 301 301 299 300 302
296 307 309 306 317 308 302 299 297 296 295 293 289 286 289 291 294 295 299 303 305 308 307 307 307 307 305 307 309 310 310 308 308 310 311 310 304 300 302 299 299 305 305
298 303 310 311 306 303 300 298 298 298 292 294 288 286 287 291 294 299 301 305 307 311 304 303 307 308 310 310 310 310 309 309 310 312 312 308 302 302 302 301 305 307 307
299 302 304 304 303 302 301 301 301 301 301 299 294 292 294 296 300 303 300 302 304 308 302 305 309 309 310 310 309 309 309 310 311 312 307 303 301 304 304 302 307 310 306
297 298 300 300 299 299 301 302 302 303 302 299 297 299 298 302 306 309 302 305 304 305 306 308 308 308 308 307 307 308 309 312 313 309 305 303 303 305 305 306 311 312 307
297 299 300 300 301 301 301 301 302 302 304 300 301 302 305 308 306 306 298 298 303 303 304 304 306 306 307 306 307 309 312 312 311 305 303 303 305 306 306 310 313 312 309
295 297 298 300 300 300 300 302 303 303 304 303 306 307 306 307 305 301 301 302 302 303 305 306 307 307 308 308 309 310 312 309 307 303 303 303 304 306 309 313 314 310 309
294 294 296 297 297 298 300 302 303 304 306 306 306 306 306 304 304 304 303 303 304 305 307 308 309 309 309 310 309 310 308 306 304 303 302 305 309 310 312 314 313 311 309
292 293 294 296 298 301 302 303 304 305 305 307 307 306 305 304 304 304 304 305 306 309 310 309 309 309 310 309 307 305 304 304 303 303 305 308 308 310 312 314 312 310 310
291 293 296 298 301 302 303 304 303 305 307 307 305 305 305 307 306 304 305 306 309 310 309 308 309 310 310 306 303 298 300 302 301 300 300 304 306 309 311 312 310 309 310
293 295 298 299 300 302 303 304 305 306 306 306 307 307 307 306 304 305 306 307 308 309 308 309 308 308 305 303 299 296 297 295 296 298 298 300 303 306 308 309 307 308 310
297 299 299 300 302 303 303 305 305 304 305 307 307 306 306 306 306 306 306 308 310 310 310 309 307 306 303 299 296 294 291 291 292 293 294 298 301 304 305 304 304 306 307
297 297 298 299 300 302 304 303 304 307 308 308 307 306 306 308 308 307 309 310 312 312 310 309 307 305 302 298 293 291 288 286 287 289 293 295 299 300 302 300 301 304 306
297 298 299 300 303 305 305 306 306 307 307 309 308 307 307 308 310 311 312 312 312 312 311 309 307 303 300 296 291 288 283 280 284 288 292 293 297 296 297 297 301 302 305